Theta_e
330 332 336 336 338 337 336 336 337 336 336 337 334 334 335 335 334 335 334 336 335 334 334 331 334 336 332 331 332 332 332 331 330 327 326 327 326 325 327 329 329 328 326
324 331 334 337 332 337 337 337 336 336 335 336 336 336 335 335 335 333 334 336 335 332 332 333 334 332 330 328 327 329 325 322 323 322 326 328 326 325 328 329 328 326 323
328 333 337 337 334 333 334 335 335 335 335 335 336 336 337 337 335 334 334 333 333 334 332 331 330 330 329 327 327 328 324 323 324 324 325 327 328 325 326 326 326 323 321
325 334 336 336 335 334 333 334 335 334 335 335 334 336 337 335 334 333 333 332 332 333 331 329 328 328 326 328 328 328 325 324 326 326 324 323 323 324 324 323 323 322 322
326 331 334 335 336 335 335 334 332 332 333 333 333 336 335 336 333 332 333 332 332 334 331 329 327 326 325 328 327 327 325 324 327 327 326 324 324 322 322 322 322 321 321
324 327 330 333 335 335 335 332 331 329 330 331 329 331 335 335 332 332 332 332 331 333 331 328 327 327 326 326 326 325 323 322 323 325 324 323 322 322 321 321 321 320 320
322 324 325 329 333 334 334 329 330 329 331 333 333 328 325 334 333 331 331 332 331 331 330 329 326 325 325 325 324 323 322 322 322 320 322 323 323 326 324 322 321 319 319
319 321 322 323 326 330 331 332 331 330 330 330 331 333 334 331 332 333 332 332 331 330 329 328 326 325 324 323 319 321 322 319 319 320 321 322 322 322 325 324 321 319 319
316 319 320 321 321 323 327 330 330 330 328 328 329 332 331 332 331 331 331 332 331 330 329 328 326 326 324 319 315 315 315 319 319 320 320 321 322 321 322 321 320 319 318
313 313 315 318 320 321 322 323 325 328 328 328 327 330 331 328 329 330 330 331 331 330 328 327 325 324 320 315 314 313 314 318 319 319 322 322 321 320 319 319 318 317 316
313 313 310 314 315 319 321 321 321 320 327 329 328 328 326 325 330 331 331 331 330 330 329 326 326 319 318 316 315 315 318 319 319 318 319 321 320 320 319 318 318 317 317
309 311 309 310 313 314 317 321 321 323 322 324 329 329 328 325 329 332 332 331 331 330 324 321 324 321 319 319 316 317 318 318 318 318 319 318 319 319 318 317 316 315 314
307 307 307 308 311 312 315 317 321 320 322 322 325 328 328 325 329 331 331 331 330 329 324 320 323 323 323 321 319 319 318 319 318 318 317 314 318 319 318 317 316 314 315
304 305 305 306 307 309 313 316 319 320 320 321 321 328 327 326 329 331 332 331 330 328 322 322 324 324 324 322 320 319 319 319 319 318 317 314 316 318 319 319 319 318 318
303 303 302 302 304 305 309 313 316 318 320 321 322 323 327 327 328 330 331 331 330 327 325 324 324 325 323 321 320 320 319 319 319 319 319 317 315 316 319 321 322 323 323
302 302 301 300 302 303 307 310 314 317 318 320 324 325 323 326 328 330 331 330 329 327 325 323 321 322 322 321 321 320 320 319 319 319 319 319 317 316 316 316 319 321 321
301 301 301 300 300 301 304 307 311 315 318 319 325 326 326 325 328 329 330 329 329 326 324 322 321 321 320 320 321 320 320 320 319 319 319 319 319 318 317 318 318 318 318
300 300 301 301 300 300 302 306 308 314 317 319 325 327 325 323 327 328 329 329 328 327 326 324 321 320 320 320 321 322 322 322 321 320 319 319 319 319 319 319 319 318 317
299 300 301 301 301 301 302 305 311 313 315 318 324 326 325 325 326 327 328 329 327 326 325 323 321 319 320 321 322 323 323 323 323 322 321 321 320 320 319 320 319 318 317
298 298 300 300 301 300 301 303 309 311 314 316 317 325 324 324 325 326 327 327 328 326 325 322 321 321 322 322 322 322 323 323 323 323 323 322 321 320 320 320 319 319 317
298 298 298 299 300 300 300 300 303 305 309 311 315 320 324 324 325 326 326 325 325 326 325 323 322 322 321 321 322 322 321 321 324 323 322 322 321 320 319 319 318 317 315
298 297 297 298 299 299 299 298 298 301 306 307 310 315 322 324 324 326 326 325 325 325 326 325 323 323 323 323 323 323 324 322 322 317 316 316 317 317 316 316 315 313 314
297 297 296 297 297 298 298 298 299 302 304 307 307 310 318 320 323 324 324 325 326 326 326 324 325 325 324 323 324 323 322 321 318 317 316 315 316 316 315 313 312 313 313
297 296 296 296 297 297 297 298 298 297 299 300 301 304 312 315 319 322 323 325 325 325 325 325 324 323 324 323 323 322 321 321 321 320 318 316 316 318 316 315 314 313 312
296 296 296 296 297 297 297 297 297 298 298 299 300 303 307 311 315 319 322 323 324 324 325 325 323 325 324 323 322 321 321 321 320 320 320 318 316 315 313 312 311 310 308
296 295 296 296 297 296 296 296 297 297 298 298 299 301 305 307 311 315 319 321 323 325 323 324 323 324 323 322 322 321 321 321 320 320 320 319 316 308 308 307 306 305 303
Wind_Speed
24 23 16 10 11 11 9 8 9 11 10 11 11 11 13 14 15 15 15 17 17 14 14 13 13 17 16 16 17 17 19 20 19 17 15 15 16 15 12 11 17 18 18
26 22 18 13 11 11 11 10 9 10 11 12 10 10 12 15 15 14 15 19 17 15 15 13 14 15 14 14 13 15 15 15 15 15 17 15 15 13 15 18 18 18 16
30 19 16 14 13 13 13 12 12 11 9 11 11 10 11 13 15 14 17 17 17 15 14 14 12 12 12 13 15 15 15 16 18 16 14 16 16 12 12 14 15 16 14
28 21 11 12 16 15 15 14 12 13 11 10 10 10 10 11 12 15 17 18 16 15 15 14 13 13 12 13 14 15 16 16 15 14 13 12 11 12 12 12 11 12 13
25 22 13 6 14 16 15 15 15 14 12 12 11 10 11 11 13 14 17 17 16 16 14 14 15 14 13 14 13 16 16 15 15 12 16 13 12 10 9 10 12 12 13
21 23 17 7 8 12 15 14 13 12 12 11 12 13 12 11 11 14 17 17 16 16 15 14 14 15 14 14 14 16 16 13 8 10 9 9 9 9 9 10 11 12 12
20 18 20 12 3 7 8 9 12 11 11 11 10 11 14 14 11 12 15 16 17 16 15 15 14 14 14 13 15 15 16 9 7 6 6 8 9 9 9 9 10 10 10
17 16 17 18 13 3 7 9 7 9 9 11 12 12 12 13 14 14 17 19 18 18 16 16 15 14 13 12 13 13 13 9 7 7 7 9 7 7 11 11 10 9 8
17 16 15 15 16 11 3 5 4 7 10 12 12 11 11 12 14 16 19 21 20 18 17 16 14 12 11 9 11 11 11 8 6 7 7 7 7 6 7 8 7 6 6
17 19 19 15 13 13 8 4 2 7 10 14 14 13 12 11 13 17 19 21 21 20 18 16 13 11 10 9 11 11 12 10 7 6 6 8 8 7 5 5 5 5 5
16 17 19 18 16 13 10 8 1 3 5 16 15 15 13 10 10 16 22 23 23 22 19 16 15 12 12 10 10 11 9 4 6 5 4 9 7 5 3 3 3 3 3
19 18 17 18 16 15 11 9 11 12 3 9 17 16 13 11 11 14 20 26 25 24 18 16 15 14 12 9 9 9 5 6 5 4 3 7 4 4 2 2 1 1 2
17 16 16 18 17 15 15 13 11 14 17 14 15 20 13 12 12 15 20 25 25 20 20 18 17 13 11 9 8 5 6 5 3 4 2 5 4 2 2 2 2 4 5
17 16 17 16 16 14 14 12 11 13 14 17 23 22 16 15 14 16 21 27 29 26 21 17 16 15 10 9 9 8 6 4 3 2 1 2 4 3 3 4 4 6 7
16 17 17 17 15 14 13 12 12 13 15 15 27 22 17 15 16 20 24 31 31 25 25 23 19 15 12 11 9 8 6 5 3 1 2 2 3 3 4 6 8 10 11
15 17 18 18 16 18 15 14 14 14 19 22 26 32 25 19 19 20 26 28 26 26 25 22 16 12 13 12 9 8 6 5 4 4 2 5 6 7 6 7 8 10 12
15 17 17 18 17 16 15 15 13 13 19 24 26 28 34 30 20 21 26 29 29 24 21 22 16 14 13 10 9 9 7 6 6 6 5 5 7 8 10 9 10 11 12
14 17 17 17 20 18 14 15 13 13 16 20 24 30 34 26 22 20 26 29 25 23 20 20 18 16 15 12 9 8 6 6 7 7 7 7 7 7 8 9 10 11 11
13 15 17 17 18 20 16 14 12 9 12 14 10 27 27 26 21 21 22 23 23 22 19 17 18 17 13 12 11 9 7 7 8 8 8 9 10 11 10 8 12 10 11
12 14 14 15 17 18 17 15 10 6 11 11 12 17 20 20 21 19 19 18 18 18 19 19 17 16 15 13 9 8 8 9 10 10 10 10 10 10 9 7 8 7 11
10 12 13 15 17 17 17 17 14 13 12 12 11 11 14 14 16 16 16 18 21 19 20 20 18 16 13 12 10 8 12 13 11 11 9 9 9 8 7 6 5 4 4
10 12 12 13 15 14 14 14 13 17 10 10 9 7 6 8 9 13 14 16 18 20 21 22 20 17 13 14 8 7 2 6 7 3 3 3 3 4 2 1 2 2 4
10 12 12 12 13 13 13 11 13 10 10 10 11 8 4 4 10 11 17 16 17 17 15 18 22 20 14 13 12 4 2 3 3 4 2 3 4 6 6 6 3 1 2
9 10 10 10 11 11 12 10 11 9 8 11 14 8 4 0 7 13 14 17 18 19 17 20 23 19 14 12 9 11 7 3 2 1 5 6 7 6 5 1 1 1 1
6 9 9 8 9 9 9 9 9 11 11 13 14 9 4 2 1 11 15 14 19 21 18 16 17 14 13 12 9 5 11 8 8 7 5 6 4 2 2 1 1 3 3
3 6 7 7 8 9 9 8 9 9 11 12 13 12 7 5 3 1 9 18 16 19 24 16 15 13 14 12 8 8 9 5 8 8 4 4 4 3 3 3 3 3 4
Wind_Direction
332 321 318 228 202 192 186 175 170 165 157 160 166 162 158 162 162 151 144 133 128 125 124 120 118 118 114 112 104 103 102 99 96 96 96 101 93 97 80 82 91 87 82
329 317 324 224 205 195 192 187 186 175 167 158 162 160 162 166 168 161 154 138 132 129 126 121 108 105 110 115 124 108 106 106 102 98 107 109 93 100 77 78 86 80 75
351 326 322 227 208 199 195 198 194 185 180 170 166 166 168 173 172 170 155 142 133 132 130 122 118 110 106 108 129 111 116 107 108 99 93 95 86 100 82 77 78 80 74
343 353 312 235 209 203 194 198 203 192 188 187 179 175 176 180 175 168 158 147 144 137 128 127 124 122 117 115 121 121 122 114 114 104 102 107 100 89 81 75 80 81 84
358 10 350 293 231 213 202 199 200 198 197 196 189 186 189 188 182 173 163 152 149 141 135 132 130 129 120 123 123 127 124 113 102 105 111 104 100 92 91 80 86 80 79
1 17 13 344 249 235 214 201 193 193 193 197 198 193 195 200 194 177 168 162 156 145 139 138 135 132 127 129 130 134 124 117 101 111 105 102 96 100 102 90 88 83 78
2 10 13 31 353 257 229 213 195 189 187 191 196 198 197 201 195 187 178 172 167 159 149 144 140 138 136 138 144 144 142 122 107 104 118 108 109 92 126 104 92 81 78
357 12 9 7 32 2 171 200 217 204 209 207 200 198 198 200 206 200 192 183 173 164 156 148 146 142 138 143 150 154 153 128 99 109 103 100 112 99 87 95 84 82 77
1 7 4 14 2 24 80 177 206 224 232 235 218 209 207 206 211 206 198 189 178 169 158 156 153 148 139 144 147 146 142 129 118 114 108 116 108 95 97 90 83 77 76
3 3 3 355 5 356 344 19 199 276 250 240 234 228 218 215 213 208 197 195 185 174 166 167 159 152 140 145 143 135 135 117 119 117 101 128 105 97 96 81 83 80 70
357 2 359 0 352 342 343 301 309 324 266 250 237 236 227 218 225 204 195 193 185 177 170 168 168 161 152 151 147 130 112 117 127 130 116 133 128 112 117 92 83 65 52
347 350 356 359 354 349 333 320 288 255 275 292 246 230 223 215 210 200 195 189 181 170 168 161 171 168 148 159 154 128 113 117 112 121 148 172 122 126 136 139 169 331 335
337 339 345 353 353 347 342 325 310 285 258 261 272 223 217 212 205 194 189 189 183 175 164 172 172 172 167 169 168 154 143 115 107 111 165 182 158 176 191 248 293 338 2
336 337 338 344 346 343 335 330 311 296 305 266 256 232 206 208 200 192 189 185 175 174 175 171 174 180 180 176 169 162 154 138 126 130 203 168 182 201 239 250 275 287 303
337 335 335 337 340 336 328 318 307 291 286 286 242 229 209 208 200 197 188 184 184 179 178 178 177 182 182 179 178 174 169 166 188 208 253 268 235 236 258 277 283 286 288
335 333 333 336 336 333 327 313 306 296 290 299 239 221 204 208 204 190 188 183 188 180 186 187 182 188 188 179 188 192 192 196 215 237 241 281 277 266 269 277 290 304 311
333 332 340 335 337 331 325 318 306 299 302 305 240 210 196 191 203 195 184 181 187 186 189 195 178 192 187 182 197 201 197 213 232 239 253 251 262 280 277 283 289 296 303
336 336 337 336 337 333 324 322 312 316 312 293 230 203 199 184 198 189 187 193 195 188 180 183 182 184 187 190 197 205 204 225 241 251 267 267 265 269 278 290 289 296 304
336 338 339 341 339 336 332 330 320 319 327 335 232 194 188 182 192 188 189 193 193 188 180 185 189 194 194 206 211 210 216 228 245 249 252 260 262 259 266 279 292 299 305
333 339 341 342 342 341 337 332 325 323 349 7 21 187 186 190 186 183 185 184 184 189 182 181 186 191 201 204 212 225 234 242 262 252 262 262 259 261 271 280 285 317 319
332 338 344 344 348 349 346 347 346 345 359 12 14 88 152 181 194 180 182 189 192 183 182 181 184 189 194 198 197 229 248 259 246 257 266 266 262 265 275 270 289 281 336
333 339 346 346 348 352 350 338 333 331 344 344 15 51 137 200 194 193 184 188 186 192 201 185 179 186 195 190 199 226 228 218 209 256 250 230 217 217 224 185 87 119 188
336 341 345 343 346 353 352 345 345 349 343 352 360 43 97 193 208 199 207 198 196 193 203 199 191 184 179 196 209 226 150 232 116 176 153 109 106 96 107 119 179 329 320
330 341 342 344 347 357 358 354 355 354 354 336 330 343 78 183 212 209 210 220 205 196 199 202 204 201 195 184 192 222 242 281 302 199 136 100 104 127 156 146 79 45 53
335 341 347 345 350 1 0 1 355 359 348 330 325 345 50 76 214 226 220 220 223 199 205 209 200 194 197 187 191 181 222 239 245 257 268 152 121 139 157 187 166 157 127
8 344 348 354 359 0 0 9 360 354 347 332 334 340 2 12 51 233 220 220 217 219 218 207 201 192 202 204 200 214 223 215 220 230 243 230 174 160 191 174 151 121 93